Location: Wellington
(41.3000°S, 174.7830°E)
Time: 08:35:46
(UTC+13:00)

ARGOS - Pass Details

Date: 24 January 2019
Orbit: 821 x 834 km, 98.5° (Epoch: 21 February)

Event Time Altitude Azimuth Distance (km) Brightness Sun altitude
Rises 21:31:31 0° 151° (SSE) 3,390 6.4 -7.7°
Reaches altitude 10° 21:34:33 10° 134° (SE) 2,448 5.5 -8.1°
Maximum altitude 21:38:27 20° 88° (E) 1,836 4.5 -8.7°
Enters shadow 21:42:00 11° 44° (NE) 2,347 4.9 -9.3°
